| time (UTC) | temp C | wind direction | speed KPH | gust KPH | rain 1hr cm | rain 24hr cm | rain mn cm | humidity % | barometer mb |
| 20260507004504 | 6 | 315 | 8.0 | 9.7 | 0.00 | 1.65 | 0.00 | 98 | 1009.0 |
| 20260507004003 | 6 | 315 | 8.0 | 9.7 | 0.00 | 1.65 | 0.00 | 98 | 1009.1 |
| 20260507003503 | 6 | 315 | 8.0 | 9.7 | 0.00 | 1.65 | 0.00 | 98 | 1009.0 |
| 20260507003003 | 6 | 315 | 8.0 | 9.7 | 0.00 | 1.65 | 0.00 | 98 | 1009.1 |
| 20260507002716 | 6 | 315 | 8.0 | 9.7 | 0.00 | 1.65 | 0.00 | 98 | 1009.3 |
| 20260507002004 | 6 | 315 | 8.0 | 9.7 | 0.00 | 1.65 | 0.00 | 98 | 1009.1 |
| 20260507001503 | 6 | 315 | 8.0 | 9.7 | 0.00 | 1.68 | 0.00 | 98 | 1009.2 |
| 20260507001003 | 6 | 315 | 8.0 | 9.7 | 0.00 | 1.68 | 0.00 | 98 | 1009.0 |
| 20260507000712 | 6 | 315 | 8.0 | 9.7 | 0.00 | 1.68 | 0.00 | 98 | 1009.2 |
| 20260507000003 | 6 | 315 | 8.0 | 9.7 | 0.00 | 1.68 | 0.00 | 98 | 1009.1 |
| 20260506235503 | 6 | 315 | 8.0 | 9.7 | 0.00 | 1.68 | 0.00 | 98 | 1009.1 |
| 20260506235003 | 6 | 315 | 8.0 | 9.7 | 0.00 | 1.68 | 0.00 | 98 | 1009.1 |
| 20260506234715 | 6 | 315 | 8.0 | 9.7 | 0.00 | 1.68 | 0.00 | 98 | 1009.0 |
| 20260506234004 | 6 | 315 | 8.0 | 9.7 | 0.00 | 1.68 | 0.00 | 98 | 1009.1 |
| 20260506233504 | 6 | 315 | 8.0 | 9.7 | 0.00 | 1.68 | 0.00 | 98 | 1009.2 |
| 20260506233004 | 6 | 315 | 8.0 | 9.7 | 0.00 | 1.68 | 0.00 | 98 | 1009.1 |
| 20260506232716 | 6 | 315 | 8.0 | 9.7 | 0.00 | 1.68 | 0.00 | 98 | 1009.3 |
| 20260506232004 | 6 | 315 | 8.0 | 9.7 | 0.00 | 1.68 | 0.00 | 98 | 1009.2 |
| 20260506231504 | 6 | 315 | 8.0 | 9.7 | 0.00 | 1.68 | 0.00 | 98 | 1009.2 |
| 20260506231004 | 6 | 315 | 8.0 | 9.7 | 0.00 | 1.70 | 0.00 | 98 | 1009.2 |
| 20260506230713 | 6 | 315 | 8.0 | 9.7 | 0.00 | 1.70 | 0.00 | 98 | 1009.3 |
| 20260506230004 | 6 | 315 | 8.0 | 9.7 | 0.00 | 1.70 | 0.00 | 98 | 1009.1 |
| 20260506225504 | 6 | 315 | 8.0 | 9.7 | 0.00 | 1.75 | 0.00 | 98 | 1009.1 |
| 20260506225004 | 6 | 315 | 8.0 | 9.7 | 0.00 | 1.75 | 0.00 | 98 | 1009.1 |
| 20260506224504 | 6 | 315 | 8.0 | 9.7 | 0.00 | 1.75 | 0.00 | 98 | 1009.1 |
| 20260506224004 | 6 | 315 | 8.0 | 9.7 | 0.00 | 1.78 | 0.00 | 98 | 1008.9 |
| 20260506223504 | 6 | 315 | 8.0 | 9.7 | 0.00 | 1.78 | 0.00 | 98 | 1009.0 |
| 20260506223004 | 6 | 315 | 8.0 | 9.7 | 0.00 | 1.78 | 0.00 | 98 | 1008.8 |
| 20260506222504 | 6 | 315 | 8.0 | 9.7 | 0.00 | 1.78 | 0.00 | 98 | 1008.8 |
| 20260506222215 | 6 | 315 | 8.0 | 9.7 | 0.00 | 1.78 | 0.00 | 98 | 1008.9 |
| 20260506221504 | 6 | 315 | 8.0 | 9.7 | 0.00 | 1.80 | 0.00 | 98 | 1008.8 |
| 20260506221003 | 6 | 315 | 8.0 | 9.7 | 0.00 | 1.80 | 0.00 | 98 | 1008.9 |
| 20260506220503 | 6 | 315 | 8.0 | 9.7 | 0.00 | 1.85 | 0.00 | 98 | 1008.8 |
| 20260506220004 | 6 | 315 | 8.0 | 9.7 | 0.00 | 1.85 | 0.00 | 98 | 1009.0 |
| 20260506215503 | 6 | 315 | 8.0 | 9.7 | 0.00 | 1.85 | 1.85 | 98 | 1009.0 |
| 20260506215213 | 6 | 315 | 8.0 | 9.7 | 0.00 | 1.88 | 1.85 | 98 | 1009.0 |
| 20260506214503 | 6 | 315 | 8.0 | 9.7 | 0.00 | 1.88 | 1.85 | 98 | 1009.1 |
| 20260506214003 | 6 | 315 | 8.0 | 9.7 | 0.00 | 1.88 | 1.85 | 98 | 1008.9 |
| 20260506213503 | 6 | 315 | 8.0 | 9.7 | 0.00 | 1.93 | 1.85 | 98 | 1009.0 |
| 20260506213003 | 6 | 315 | 8.0 | 9.7 | 0.00 | 1.93 | 1.85 | 98 | 1008.9 |
| 20260506212503 | 6 | 315 | 8.0 | 9.7 | 0.00 | 1.96 | 1.85 | 98 | 1008.9 |
| 20260506212216 | 6 | 315 | 8.0 | 9.7 | 0.00 | 1.96 | 1.85 | 98 | 1009.0 |
| 20260506211503 | 6 | 315 | 8.0 | 9.7 | 0.00 | 1.98 | 1.85 | 98 | 1008.8 |
| 20260506211003 | 6 | 315 | 8.0 | 9.7 | 0.00 | 1.98 | 1.85 | 98 | 1008.8 |
| 20260506210714 | 6 | 315 | 8.0 | 9.7 | 0.00 | 1.98 | 1.85 | 98 | 1008.6 |
| 20260506210217 | 6 | 315 | 8.0 | 9.7 | 0.00 | 2.01 | 1.85 | 98 | 1008.6 |
| 20260506205503 | 6 | 315 | 8.0 | 9.7 | 0.00 | 2.01 | 1.85 | 98 | 1008.8 |
| 20260506205003 | 6 | 315 | 8.0 | 9.7 | 0.00 | 2.01 | 1.85 | 98 | 1008.9 |
| 20260506204716 | 6 | 315 | 8.0 | 9.7 | 0.00 | 2.01 | 1.85 | 98 | 1008.7 |
| 20260506204004 | 6 | 315 | 8.0 | 9.7 | 0.00 | 2.06 | 1.85 | 98 | 1008.8 |
| 20260506203504 | 6 | 315 | 8.0 | 9.7 | 0.00 | 2.13 | 1.85 | 98 | 1008.7 |
| 20260506203004 | 6 | 315 | 8.0 | 9.7 | 0.00 | 2.18 | 1.85 | 98 | 1008.6 |
| 20260506202504 | 6 | 315 | 8.0 | 9.7 | 0.00 | 2.18 | 1.85 | 98 | 1008.8 |
| 20260506202004 | 6 | 315 | 8.0 | 9.7 | 0.00 | 2.21 | 1.85 | 98 | 1008.7 |
| 20260506201504 | 6 | 315 | 8.0 | 9.7 | 0.00 | 2.21 | 1.85 | 98 | 1008.8 |
| 20260506201004 | 6 | 315 | 8.0 | 9.7 | 0.00 | 2.21 | 1.85 | 98 | 1008.7 |
| 20260506200504 | 6 | 315 | 8.0 | 9.7 | 0.00 | 2.26 | 1.85 | 98 | 1008.5 |
| 20260506200004 | 6 | 315 | 8.0 | 9.7 | 0.00 | 2.26 | 1.85 | 98 | 1008.5 |
| 20260506195504 | 6 | 315 | 8.0 | 9.7 | 0.00 | 2.26 | 1.85 | 98 | 1008.6 |
| 20260506195004 | 6 | 315 | 8.0 | 9.7 | 0.00 | 2.29 | 1.85 | 98 | 1008.4 |
| 20260506194504 | 6 | 315 | 8.0 | 9.7 | 0.00 | 2.29 | 1.85 | 98 | 1008.3 |
| 20260506194215 | 6 | 315 | 8.0 | 9.7 | 0.00 | 2.31 | 1.85 | 98 | 1008.3 |
| 20260506193503 | 6 | 315 | 8.0 | 9.7 | 0.00 | 2.34 | 1.85 | 98 | 1008.0 |
| 20260506193004 | 6 | 315 | 8.0 | 9.7 | 0.00 | 2.34 | 1.85 | 98 | 1007.9 |
| 20260506192504 | 6 | 315 | 8.0 | 9.7 | 0.00 | 2.34 | 1.85 | 98 | 1008.0 |
| 20260506192217 | 6 | 315 | 8.0 | 9.7 | 0.00 | 2.34 | 1.85 | 98 | 1007.7 |
| 20260506191504 | 6 | 315 | 8.0 | 9.7 | 0.00 | 2.34 | 1.85 | 98 | 1007.8 |
| 20260506191003 | 6 | 315 | 8.0 | 9.7 | 0.00 | 2.34 | 1.85 | 98 | 1007.6 |
| 20260506190504 | 6 | 315 | 8.0 | 9.7 | 0.00 | 2.34 | 1.85 | 98 | 1007.4 |
| 20260506190004 | 6 | 315 | 8.0 | 9.7 | 0.00 | 2.36 | 1.85 | 98 | 1007.5 |
| 20260506185504 | 6 | 315 | 8.0 | 9.7 | 0.00 | 2.36 | 1.85 | 98 | 1007.4 |
| 20260506185004 | 6 | 315 | 8.0 | 9.7 | 0.00 | 2.36 | 1.85 | 98 | 1007.3 |
| 20260506184504 | 6 | 315 | 8.0 | 9.7 | 0.00 | 2.36 | 1.85 | 98 | 1007.5 |
| 20260506184003 | 6 | 315 | 8.0 | 9.7 | 0.00 | 2.39 | 1.85 | 98 | 1007.3 |
| 20260506183714 | 6 | 315 | 8.0 | 9.7 | 0.00 | 2.39 | 1.85 | 98 | 1007.2 |
| 20260506183004 | 6 | 315 | 8.0 | 9.7 | 0.00 | 2.39 | 1.85 | 98 | 1007.1 |
| 20260506182503 | 6 | 315 | 8.0 | 9.7 | 0.00 | 2.44 | 1.85 | 98 | 1007.1 |
| 20260506182003 | 6 | 315 | 8.0 | 9.7 | 0.00 | 2.44 | 1.85 | 98 | 1006.8 |
| 20260506181504 | 6 | 315 | 8.0 | 9.7 | 0.00 | 2.46 | 1.85 | 98 | 1006.7 |
| 20260506181004 | 6 | 315 | 8.0 | 9.7 | 0.00 | 2.46 | 1.85 | 98 | 1006.8 |
| 20260506180504 | 6 | 315 | 8.0 | 9.7 | 0.00 | 2.46 | 1.85 | 98 | 1006.5 |
| 20260506180004 | 6 | 315 | 8.0 | 9.7 | 0.00 | 2.46 | 1.85 | 98 | 1006.5 |
| 20260506175503 | 6 | 315 | 8.0 | 9.7 | 0.00 | 2.46 | 1.85 | 98 | 1006.7 |
| 20260506175004 | 6 | 315 | 8.0 | 9.7 | 0.00 | 2.49 | 1.85 | 98 | 1006.5 |
| 20260506174503 | 6 | 315 | 8.0 | 9.7 | 0.00 | 2.49 | 1.85 | 98 | 1006.7 |
| 20260506174003 | 6 | 315 | 8.0 | 9.7 | 0.00 | 2.51 | 1.85 | 98 | 1006.7 |
| 20260506173714 | 6 | 315 | 8.0 | 9.7 | 0.00 | 2.51 | 1.85 | 98 | 1006.6 |
| 20260506173003 | 6 | 315 | 8.0 | 9.7 | 0.00 | 2.51 | 1.85 | 98 | 1006.6 |
| 20260506172503 | 6 | 315 | 8.0 | 9.7 | 0.00 | 2.54 | 1.85 | 98 | 1006.5 |
| 20260506172004 | 6 | 315 | 8.0 | 9.7 | 0.00 | 2.54 | 1.85 | 98 | 1006.5 |
| 20260506171504 | 6 | 315 | 8.0 | 9.7 | 0.00 | 2.54 | 1.85 | 98 | 1006.6 |
| 20260506171004 | 6 | 315 | 8.0 | 9.7 | 0.00 | 2.59 | 1.85 | 98 | 1006.4 |
| 20260506170504 | 6 | 315 | 8.0 | 9.7 | 0.00 | 2.59 | 1.85 | 98 | 1006.3 |
| 20260506170004 | 6 | 315 | 8.0 | 9.7 | 0.00 | 2.59 | 1.85 | 98 | 1006.4 |
| 20260506165504 | 6 | 315 | 8.0 | 9.7 | 0.00 | 2.59 | 1.85 | 98 | 1006.6 |
| 20260506165216 | 6 | 315 | 8.0 | 9.7 | 0.00 | 2.59 | 1.85 | 98 | 1006.6 |
| 20260506164504 | 6 | 315 | 8.0 | 9.7 | 0.00 | 2.59 | 1.85 | 98 | 1006.5 |
| 20260506164004 | 6 | 315 | 8.0 | 9.7 | 0.00 | 2.59 | 1.85 | 98 | 1006.3 |
| 20260506163504 | 6 | 315 | 8.0 | 9.7 | 0.00 | 2.59 | 1.85 | 98 | 1006.5 |
| 20260506163004 | 6 | 315 | 8.0 | 9.7 | 0.00 | 2.62 | 1.85 | 98 | 1006.4 |
| 20260506162504 | 6 | 315 | 8.0 | 9.7 | 0.00 | 2.62 | 1.85 | 98 | 1006.2 |
| 20260506162004 | 6 | 315 | 8.0 | 9.7 | 0.00 | 2.62 | 1.85 | 98 | 1006.3 |
| 20260506161504 | 6 | 315 | 8.0 | 9.7 | 0.00 | 2.62 | 1.85 | 98 | 1006.2 |
| 20260506161215 | 6 | 315 | 8.0 | 9.7 | 0.00 | 2.62 | 1.85 | 98 | 1006.1 |
| 20260506160503 | 6 | 315 | 8.0 | 9.7 | 0.00 | 2.62 | 1.85 | 98 | 1006.2 |
| 20260506160004 | 6 | 315 | 8.0 | 9.7 | 0.00 | 2.62 | 1.85 | 98 | 1006.3 |
| 20260506155503 | 6 | 315 | 8.0 | 9.7 | 0.00 | 2.62 | 1.85 | 98 | 1006.4 |
| 20260506155004 | 6 | 315 | 8.0 | 9.7 | 0.00 | 2.62 | 1.85 | 98 | 1006.6 |
| 20260506154504 | 6 | 315 | 8.0 | 9.7 | 0.00 | 2.62 | 1.85 | 98 | 1006.6 |
| 20260506154218 | 6 | 315 | 8.0 | 9.7 | 0.00 | 2.62 | 1.85 | 98 | 1006.5 |
| 20260506153503 | 6 | 315 | 8.0 | 9.7 | 0.00 | 2.64 | 1.85 | 98 | 1006.5 |
| 20260506153003 | 6 | 315 | 8.0 | 9.7 | 0.00 | 2.64 | 1.85 | 98 | 1006.9 |
| 20260506152503 | 6 | 315 | 8.0 | 9.7 | 0.00 | 2.64 | 1.85 | 98 | 1006.7 |
| 20260506152004 | 6 | 315 | 8.0 | 9.7 | 0.00 | 2.64 | 1.85 | 98 | 1006.8 |
| 20260506151503 | 6 | 315 | 8.0 | 9.7 | 0.00 | 2.64 | 1.85 | 98 | 1006.5 |
| 20260506151003 | 6 | 315 | 8.0 | 9.7 | 0.00 | 2.64 | 1.85 | 98 | 1006.8 |
| 20260506150504 | 6 | 315 | 8.0 | 9.7 | 0.00 | 2.64 | 1.85 | 98 | 1006.6 |
| 20260506150004 | 6 | 315 | 8.0 | 9.7 | 0.00 | 2.64 | 1.85 | 98 | 1006.6 |
| 20260506145503 | 6 | 315 | 8.0 | 9.7 | 0.00 | 2.64 | 1.85 | 98 | 1006.5 |
| 20260506145003 | 6 | 315 | 8.0 | 9.7 | 0.00 | 2.64 | 1.85 | 98 | 1006.5 |
| 20260506144715 | 6 | 315 | 8.0 | 9.7 | 0.00 | 2.64 | 1.85 | 98 | 1006.8 |
| 20260506144004 | 6 | 315 | 8.0 | 9.7 | 0.00 | 2.64 | 1.85 | 98 | 1006.8 |
| 20260506143503 | 6 | 315 | 8.0 | 9.7 | 0.00 | 2.64 | 1.85 | 98 | 1006.8 |
| 20260506143214 | 6 | 315 | 8.0 | 9.7 | 0.00 | 2.64 | 1.85 | 98 | 1006.7 |
| 20260506142504 | 6 | 315 | 8.0 | 9.7 | 0.00 | 2.67 | 1.85 | 98 | 1006.8 |
| 20260506142215 | 6 | 315 | 8.0 | 9.7 | 0.00 | 2.67 | 1.85 | 98 | 1006.8 |
| 20260506141503 | 6 | 315 | 8.0 | 9.7 | 0.00 | 2.67 | 1.85 | 98 | 1006.9 |
| 20260506141003 | 6 | 315 | 8.0 | 9.7 | 0.00 | 2.67 | 1.85 | 98 | 1006.8 |
| 20260506140503 | 6 | 315 | 8.0 | 9.7 | 0.00 | 2.69 | 1.85 | 98 | 1006.8 |
| 20260506140003 | 6 | 315 | 8.0 | 9.7 | 0.00 | 2.69 | 1.85 | 98 | 1006.9 |
| 20260506135503 | 6 | 315 | 8.0 | 9.7 | 0.00 | 2.69 | 1.85 | 98 | 1007.0 |
| 20260506135004 | 6 | 315 | 8.0 | 9.7 | 0.00 | 2.69 | 1.85 | 98 | 1006.9 |
| 20260506134504 | 6 | 315 | 8.0 | 9.7 | 0.00 | 2.72 | 1.85 | 98 | 1007.0 |
| 20260506134004 | 6 | 315 | 8.0 | 9.7 | 0.03 | 2.72 | 1.85 | 98 | 1007.0 |
| 20260506133717 | 6 | 315 | 8.0 | 9.7 | 0.03 | 2.72 | 1.85 | 98 | 1007.1 |
| 20260506133004 | 6 | 315 | 8.0 | 9.7 | 0.05 | 2.72 | 1.85 | 98 | 1007.0 |
| 20260506132718 | 6 | 315 | 8.0 | 9.7 | 0.05 | 2.72 | 1.85 | 98 | 1007.1 |
| 20260506132004 | 6 | 315 | 8.0 | 9.7 | 0.18 | 2.72 | 1.85 | 98 | 1006.9 |
| 20260506131504 | 6 | 315 | 8.0 | 9.7 | 0.18 | 2.77 | 1.85 | 98 | 1007.1 |
| 20260506131004 | 6 | 315 | 8.0 | 9.7 | 0.38 | 2.77 | 1.85 | 98 | 1006.8 |
| 20260506130504 | 6 | 315 | 8.0 | 9.7 | 0.51 | 2.77 | 1.85 | 98 | 1007.1 |
| 20260506130005 | 6 | 315 | 8.0 | 9.7 | 0.51 | 2.77 | 1.85 | 98 | 1007.1 |
| 20260506125504 | 6 | 318 | 8.0 | 9.7 | 0.51 | 2.79 | 1.85 | 98 | 1006.8 |
| 20260506125004 | 6 | 325 | 8.0 | 12.9 | 0.53 | 2.79 | 1.85 | 98 | 1006.3 |
| 20260506124504 | 5 | 327 | 3.2 | 17.7 | 0.56 | 2.79 | 1.85 | 98 | 1007.0 |
| 20260506124004 | 5 | 321 | 9.7 | 17.7 | 0.61 | 2.79 | 1.83 | 98 | 1006.9 |
| 20260506123504 | 5 | 319 | 14.5 | 17.7 | 0.66 | 2.79 | 1.83 | 98 | 1007.0 |
| 20260506123004 | 5 | 319 | 12.9 | 17.7 | 0.66 | 2.77 | 1.80 | 98 | 1007.4 |
| 20260506122504 | 5 | 312 | 11.3 | 17.7 | 0.61 | 2.72 | 1.75 | 97 | 1007.6 |
| 20260506122003 | 5 | 288 | 6.4 | 8.0 | 0.53 | 2.67 | 1.68 | 97 | 1007.6 |
| 20260506121504 | 5 | 125 | 0.0 | 11.3 | 0.51 | 2.64 | 1.65 | 97 | 1007.4 |
| 20260506121004 | 6 | 101 | 3.2 | 11.3 | 0.33 | 2.46 | 1.47 | 96 | 1007.2 |
| 20260506120504 | 6 | 97 | 4.8 | 6.4 | 0.23 | 2.34 | 1.35 | 94 | 1006.4 |
| 20260506120004 | 6 | 133 | 4.8 | 6.4 | 0.23 | 2.34 | 1.35 | 94 | 1006.1 |
| 20260506115716 | 6 | 154 | 1.6 | 4.8 | 0.23 | 2.34 | 1.35 | 94 | 1005.9 |
| 20260506115003 | 6 | 134 | 0.0 | 9.7 | 0.20 | 2.31 | 1.32 | 92 | 1006.2 |
| 20260506114503 | 6 | 128 | 3.2 | 9.7 | 0.20 | 2.29 | 1.30 | 92 | 1006.0 |
| 20260506114003 | 7 | 10 | 6.4 | 12.9 | 0.13 | 2.21 | 1.19 | 87 | 1005.8 |
| 20260506113503 | 8 | 323 | 1.6 | 17.7 | 0.10 | 2.18 | 1.17 | 86 | 1005.8 |
| 20260506113003 | 8 | 333 | 4.8 | 17.7 | 0.10 | 2.16 | 1.14 | 87 | 1005.6 |
| 20260506112503 | 8 | 328 | 6.4 | 17.7 | 0.10 | 2.16 | 1.14 | 87 | 1005.8 |
| 20260506112003 | 8 | 332 | 8.0 | 17.7 | 0.13 | 2.16 | 1.14 | 87 | 1005.5 |
| 20260506111503 | 8 | 337 | 6.4 | 12.9 | 0.13 | 2.16 | 1.14 | 87 | 1005.3 |
| 20260506111004 | 8 | 336 | 4.8 | 19.3 | 0.15 | 2.18 | 1.14 | 87 | 1005.4 |
| 20260506110503 | 8 | 320 | 4.8 | 19.3 | 0.18 | 2.16 | 1.12 | 87 | 1005.5 |
| 20260506110003 | 8 | 323 | 11.3 | 19.3 | 0.18 | 2.18 | 1.12 | 87 | 1005.3 |
| 20260506105503 | 8 | 19 | 9.7 | 16.1 | 0.18 | 2.18 | 1.12 | 89 | 1005.7 |
| 20260506105003 | 8 | 338 | 3.2 | 9.7 | 0.20 | 2.18 | 1.12 | 89 | 1005.9 |
| 20260506104503 | 8 | 343 | 6.4 | 9.7 | 0.20 | 2.18 | 1.09 | 90 | 1005.8 |
| 20260506104003 | 8 | 355 | 4.8 | 6.4 | 0.23 | 2.18 | 1.09 | 90 | 1005.3 |
| 20260506103503 | 8 | 319 | 3.2 | 11.3 | 0.20 | 2.16 | 1.04 | 91 | 1005.8 |
| 20260506103003 | 7 | 336 | 3.2 | 11.3 | 0.20 | 2.16 | 1.04 | 91 | 1005.7 |
| 20260506102503 | 7 | 8 | 3.2 | 9.7 | 0.20 | 2.16 | 1.04 | 92 | 1005.9 |
| 20260506102003 | 7 | 280 | 3.2 | 9.7 | 0.18 | 2.16 | 1.02 | 92 | 1006.1 |
| 20260506101503 | 7 | 339 | 1.6 | 6.4 | 0.18 | 2.16 | 1.02 | 91 | 1005.9 |
| 20260506101003 | 7 | 99 | 3.2 | 6.4 | 0.15 | 2.13 | 0.99 | 91 | 1005.8 |
| 20260506100504 | 7 | 101 | 1.6 | 6.4 | 0.13 | 2.06 | 0.94 | 91 | 1005.8 |
| 20260506100004 | 7 | 8 | 1.6 | 22.5 | 0.13 | 2.06 | 0.94 | 91 | 1005.6 |
| 20260506095504 | 7 | 93 | 6.4 | 22.5 | 0.13 | 2.11 | 0.94 | 92 | 1005.5 |
| 20260506095004 | 7 | 129 | 17.7 | 22.5 | 0.10 | 2.06 | 0.89 | 92 | 1005.3 |
| 20260506094504 | 7 | 192 | 1.6 | 17.7 | 0.05 | 2.03 | 0.86 | 92 | 1005.4 |
| 20260506094004 | 7 | 231 | 3.2 | 12.9 | 0.03 | 2.01 | 0.84 | 91 | 1005.6 |
| 20260506093504 | 7 | 180 | 0.0 | 8.0 | 0.03 | 2.01 | 0.84 | 94 | 1005.5 |
| 20260506093217 | 7 | 160 | 1.6 | 8.0 | 0.03 | 2.01 | 0.84 | 90 | 1005.5 |
| 20260506092504 | 8 | 113 | 0.0 | 6.4 | 0.03 | 2.03 | 0.84 | 90 | 1005.4 |
| 20260506092004 | 8 | 33 | 3.2 | 6.4 | 0.03 | 2.03 | 0.84 | 90 | 1005.3 |
| 20260506091504 | 8 | 338 | 0.0 | 12.9 | 0.03 | 2.03 | 0.84 | 91 | 1005.4 |
| 20260506091004 | 8 | 350 | 6.4 | 12.9 | 0.03 | 2.03 | 0.84 | 92 | 1005.3 |
| 20260506090504 | 8 | 358 | 6.4 | 12.9 | 0.00 | 2.01 | 0.81 | 96 | 1005.4 |
| 20260506090004 | 8 | 313 | 3.2 | 16.1 | 0.00 | 2.03 | 0.81 | 98 | 1005.3 |
| 20260506085504 | 8 | 306 | 4.8 | 16.1 | 0.00 | 2.03 | 0.81 | 99 | 1005.2 |
| 20260506085216 | 8 | 311 | 9.7 | 16.1 | 0.00 | 2.03 | 0.81 | 99 | 1005.1 |
| 20260506084504 | 7 | 353 | 1.6 | 9.7 | 0.00 | 2.03 | 0.81 | 99 | 1005.3 |
| 20260506084004 | 8 | 249 | 1.6 | 6.4 | 0.00 | 2.03 | 0.81 | 99 | 1005.4 |
| 20260506083504 | 7 | 174 | 6.4 | 8.0 | 0.00 | 2.03 | 0.81 | 99 | 1005.1 |
| 20260506083003 | 8 | 143 | 3.2 | 8.0 | 0.00 | 2.06 | 0.81 | 99 | 1005.2 |
| 20260506082503 | 8 | 182 | 0.0 | 6.4 | 0.00 | 2.06 | 0.81 | 99 | 1005.3 |
| 20260506082004 | 8 | 180 | 1.6 | 6.4 | 0.00 | 2.11 | 0.81 | 99 | 1005.3 |
| 20260506081503 | 7 | 241 | 3.2 | 6.4 | 0.00 | 2.13 | 0.81 | 99 | 1005.3 |
| 20260506081003 | 7 | 332 | 3.2 | 4.8 | 0.00 | 2.16 | 0.81 | 99 | 1005.5 |
| 20260506080503 | 7 | 245 | 3.2 | 9.7 | 0.00 | 2.26 | 0.81 | 98 | 1005.2 |
| 20260506080216 | 7 | 139 | 3.2 | 12.9 | 0.00 | 2.26 | 0.81 | 98 | 1005.4 |
| 20260506073503 | 7 | 84 | 8.0 | 11.3 | 0.03 | 2.51 | 0.81 | 99 | 1005.5 |
| 20260506073003 | 7 | 287 | 0.0 | 6.4 | 0.03 | 2.54 | 0.81 | 99 | 1005.6 |
| 20260506072504 | 7 | 346 | 1.6 | 8.0 | 0.05 | 2.59 | 0.81 | 99 | 1005.6 |
| 20260506072214 | 7 | 310 | 4.8 | 8.0 | 0.05 | 2.62 | 0.81 | 99 | 1005.9 |
| 20260506071503 | 7 | 313 | 3.2 | 8.0 | 0.05 | 2.67 | 0.81 | 99 | 1005.7 |
| 20260506071215 | 7 | 340 | 3.2 | 6.4 | 0.10 | 2.67 | 0.81 | 99 | 1005.8 |
| 20260506070713 | 7 | 86 | 0.0 | 12.9 | 0.10 | 2.77 | 0.81 | 99 | 1005.6 |
| 20260506062504 | 6 | 358 | 4.8 | 6.4 | 0.15 | 2.87 | 0.76 | 99 | 1005.7 |
| 20260506062004 | 6 | 352 | 3.2 | 6.4 | 0.18 | 2.92 | 0.76 | 99 | 1005.6 |
| 20260506061504 | 6 | 323 | 1.6 | 6.4 | 0.18 | 2.95 | 0.76 | 99 | 1005.6 |
| 20260506061004 | 6 | 317 | 3.2 | 6.4 | 0.18 | 2.95 | 0.71 | 99 | 1005.7 |
| 20260506060504 | 6 | 324 | 1.6 | 3.2 | 0.18 | 2.95 | 0.69 | 99 | 1005.8 |
| 20260506051004 | 7 | 315 | 0.0 | 3.2 | 0.03 | 2.97 | 0.53 | 99 | 1006.4 |
| 20260506050504 | 7 | 329 | 0.0 | 1.6 | 0.03 | 2.97 | 0.51 | 99 | 1006.5 |
| 20260506045004 | 7 | 158 | 0.0 | 1.6 | 0.03 | 3.00 | 0.51 | 99 | 1006.4 |
| 20260506044504 | 7 | 315 | 0.0 | 1.6 | 0.05 | 3.00 | 0.51 | 99 | 1006.3 |
| 20260506044003 | 7 | 16 | 0.0 | 1.6 | 0.05 | 3.00 | 0.51 | 99 | 1006.3 |
| 20260506043717 | 7 | 344 | 0.0 | 3.2 | 0.05 | 3.00 | 0.51 | 99 | 1006.5 |
| 20260506043003 | 7 | 315 | 0.0 | 3.2 | 0.10 | 3.00 | 0.51 | 99 | 1006.4 |
| 20260506042504 | 7 | 315 | 0.0 | 3.2 | 0.13 | 3.00 | 0.51 | 99 | 1006.6 |
| 20260506042003 | 7 | 281 | 0.0 | 3.2 | 0.13 | 3.00 | 0.51 | 99 | 1006.6 |
| 20260506041503 | 7 | 203 | 0.0 | 1.6 | 0.13 | 3.00 | 0.51 | 99 | 1006.9 |
| 20260506041003 | 7 | 180 | 0.0 | 1.6 | 0.13 | 3.00 | 0.51 | 99 | 1006.8 |
| 20260506040503 | 7 | 360 | 0.0 | 1.6 | 0.10 | 3.00 | 0.48 | 99 | 1006.8 |
| 20260506040003 | 7 | 360 | 0.0 | 1.6 | 0.10 | 3.00 | 0.48 | 99 | 1006.8 |
| 20260506035503 | 7 | 360 | 0.0 | 1.6 | 0.10 | 3.00 | 0.48 | 99 | 1006.7 |
| 20260506035004 | 7 | 360 | 0.0 | 1.6 | 0.05 | 2.97 | 0.46 | 99 | 1006.8 |
| 20260506034503 | 7 | 340 | 0.0 | 3.2 | 0.05 | 2.97 | 0.46 | 99 | 1006.7 |
| 20260506034215 | 7 | 332 | 0.0 | 3.2 | 0.05 | 2.97 | 0.46 | 99 | 1006.8 |
| 20260506033504 | 7 | 331 | 0.0 | 1.6 | 0.05 | 2.97 | 0.46 | 99 | 1006.9 |
| 20260506033003 | 7 | 360 | 0.0 | 1.6 | 0.03 | 2.95 | 0.43 | 99 | 1007.1 |
| 20260506032714 | 7 | 360 | 0.0 | 1.6 | 0.05 | 2.95 | 0.43 | 99 | 1006.9 |
| 20260506032217 | 7 | 360 | 0.0 | 1.6 | 0.03 | 2.92 | 0.38 | 99 | 1007.1 |
| 20260506031503 | 7 | 327 | 0.0 | 3.2 | 0.03 | 2.92 | 0.38 | 99 | 1007.2 |
| 20260506031003 | 7 | 328 | 0.0 | 3.2 | 0.03 | 2.92 | 0.38 | 99 | 1007.3 |
| 20260506030503 | 7 | 344 | 0.0 | 3.2 | 0.03 | 2.92 | 0.38 | 99 | 1007.3 |
| 20260506030003 | 7 | 343 | 0.0 | 3.2 | 0.03 | 2.92 | 0.38 | 99 | 1007.1 |
| 20260506025504 | 7 | 360 | 0.0 | 1.6 | 0.05 | 2.92 | 0.38 | 99 | 1007.2 |
| 20260506025005 | 7 | 5 | 0.0 | 1.6 | 0.05 | 2.92 | 0.38 | 99 | 1007.4 |
| 20260506024504 | 7 | 20 | 0.0 | 1.6 | 0.10 | 2.92 | 0.38 | 99 | 1007.6 |
| 20260506024004 | 7 | 45 | 0.0 | 1.6 | 0.10 | 2.92 | 0.38 | 99 | 1007.6 |
| 20260506023504 | 7 | 45 | 0.0 | 1.6 | 0.10 | 2.92 | 0.38 | 99 | 1007.7 |
| 20260506023004 | 7 | 344 | 0.0 | 3.2 | 0.13 | 2.92 | 0.38 | 99 | 1007.8 |
| 20260506022715 | 7 | 319 | 0.0 | 3.2 | 0.10 | 2.87 | 0.38 | 99 | 1007.9 |
| 20260506022004 | 7 | 342 | 1.6 | 3.2 | 0.10 | 2.87 | 0.36 | 99 | 1007.7 |
| 20260506021504 | 7 | 359 | 0.0 | 3.2 | 0.10 | 2.87 | 0.36 | 99 | 1007.6 |
| 20260506021004 | 7 | 317 | 0.0 | 3.2 | 0.10 | 2.87 | 0.36 | 99 | 1007.9 |
| 20260506020504 | 7 | 316 | 3.2 | 6.4 | 0.10 | 2.87 | 0.36 | 99 | 1007.8 |
| 20260506020004 | 7 | 345 | 3.2 | 6.4 | 0.13 | 2.87 | 0.36 | 99 | 1007.9 |
| 20260506015504 | 7 | 103 | 1.6 | 4.8 | 0.10 | 2.84 | 0.33 | 99 | 1007.9 |
| 20260506015004 | 7 | 338 | 0.0 | 3.2 | 0.10 | 2.84 | 0.33 | 99 | 1007.9 |
| 20260506014504 | 7 | 360 | 0.0 | 1.6 | 0.10 | 2.82 | 0.30 | 99 | 1007.8 |
| 20260506014216 | 7 | 350 | 0.0 | 3.2 | 0.10 | 2.82 | 0.30 | 99 | 1007.7 |
| 20260506013504 | 7 | 352 | 1.6 | 3.2 | 0.05 | 2.79 | 0.28 | 99 | 1007.8 |
| 20260506013004 | 7 | 360 | 0.0 | 3.2 | 0.05 | 2.79 | 0.28 | 99 | 1008.0 |
| 20260506012715 | 7 | 347 | 1.6 | 3.2 | 0.05 | 2.79 | 0.28 | 99 | 1008.0 |
| 20260506012003 | 7 | 346 | 1.6 | 3.2 | 0.05 | 2.79 | 0.28 | 99 | 1008.1 |
| 20260506011503 | 7 | 360 | 0.0 | 1.6 | 0.10 | 2.79 | 0.28 | 99 | 1008.0 |
| 20260506011003 | 7 | 338 | 0.0 | 1.6 | 0.10 | 2.79 | 0.28 | 99 | 1008.2 |
| 20260506010503 | 7 | 30 | 0.0 | 1.6 | 0.10 | 2.79 | 0.28 | 99 | 1008.2 |
| 20260506010215 | 7 | 54 | 0.0 | 1.6 | 0.05 | 2.77 | 0.23 | 99 | 1008.4 |
| 20260506005503 | 7 | 9 | 0.0 | 3.2 | 0.05 | 2.77 | 0.23 | 99 | 1008.3 |
| 20260506005003 | 7 | 341 | 0.0 | 3.2 | 0.05 | 2.77 | 0.23 | 99 | 1008.4 |